Wind_Speed
18 16 14 11 10 9 11 13 13 12 11 15 17 15 16 21 22 24 25 24 22 20 18 15 14 13 11 9 10 11 13 14 15 15 16 18 18 17 16 15 13 12 11 10
19 16 14 12 11 12 15 16 14 14 14 15 16 14 16 20 20 22 23 22 22 20 18 15 14 12 10 9 9 10 11 13 14 16 16 18 19 17 16 15 14 13 12 10
19 15 14 15 15 14 16 15 13 15 15 14 15 16 18 20 21 19 20 21 21 20 18 16 14 12 10 8 8 10 9 10 13 15 16 17 18 17 15 15 14 14 13 12
18 15 15 18 17 15 16 13 14 15 16 15 15 17 17 21 21 20 20 20 21 19 18 16 14 12 10 7 7 9 9 10 12 14 16 17 17 17 16 15 14 14 14 14
17 16 17 18 18 16 15 15 16 17 17 16 14 15 17 18 20 22 22 21 20 19 18 16 14 12 10 7 7 7 8 10 11 12 15 16 17 17 16 15 15 15 15 14
18 17 18 18 17 17 16 16 17 15 14 13 13 14 15 15 20 22 22 21 19 18 18 16 13 12 10 6 5 5 7 9 10 11 13 15 17 17 16 16 16 16 15 15
18 17 18 18 17 15 15 15 14 13 14 16 15 14 12 15 18 21 21 20 17 17 17 15 13 12 9 6 4 3 5 7 9 11 13 14 16 17 17 16 16 16 16 16
16 17 16 18 17 15 15 15 15 15 17 18 18 15 12 12 16 20 20 18 16 16 15 14 13 12 9 6 4 3 5 7 9 10 12 14 15 16 17 17 16 16 17 16
13 12 14 17 17 17 15 16 14 17 18 19 18 14 13 14 18 18 17 17 16 15 15 15 13 12 10 6 4 3 4 6 7 8 10 13 14 16 17 17 17 17 17 17
18 17 13 16 17 16 16 15 15 17 18 18 15 15 16 17 17 17 17 17 17 15 15 14 13 11 9 6 4 3 3 4 6 7 8 11 13 16 17 17 18 18 17 16
21 22 18 17 18 15 15 16 17 18 18 17 17 18 20 19 18 13 17 18 18 16 15 14 13 11 9 6 4 4 4 5 6 8 9 11 12 13 15 16 17 17 17 17
22 22 22 21 19 17 17 16 17 20 20 20 20 20 21 20 15 13 16 20 19 17 16 14 13 11 10 7 5 4 4 5 7 8 9 9 11 12 13 14 15 17 18 18
27 26 24 22 20 19 21 19 20 21 22 21 20 21 20 21 21 19 18 21 20 18 17 15 13 11 10 8 7 6 5 5 6 8 9 10 11 12 13 15 16 17 18 19
33 31 28 23 20 23 26 26 25 23 22 22 21 23 24 24 24 23 23 22 20 19 19 18 15 13 11 10 8 7 7 7 7 7 9 10 10 12 13 15 15 16 18 19
35 34 32 29 27 26 24 25 26 25 24 25 25 24 25 27 28 27 26 23 21 22 21 18 17 16 13 12 10 9 8 8 9 9 9 10 11 12 13 14 15 16 18 20
34 35 34 32 30 27 27 25 24 23 24 25 28 28 27 31 32 32 29 27 26 25 23 21 21 19 16 15 13 11 10 10 10 11 11 11 12 13 14 15 16 17 18 18
31 34 35 33 30 31 31 28 27 28 28 29 30 32 33 34 35 35 32 30 29 29 26 26 24 21 19 17 16 14 13 13 13 13 13 13 14 15 16 17 17 17 17 17
33 32 33 32 33 35 31 30 31 33 33 33 35 36 36 37 37 36 35 36 35 33 31 29 27 25 22 21 20 18 17 16 16 16 16 16 17 18 18 19 19 18 18 18
33 34 33 32 32 32 29 30 32 33 33 35 36 36 36 36 36 36 36 37 37 35 33 31 29 28 25 24 22 21 20 20 19 19 19 19 19 19 20 20 21 21 21 21
34 34 33 32 33 31 30 31 32 32 34 36 36 35 36 36 36 37 36 35 35 35 34 31 31 30 28 27 25 24 23 23 22 22 22 21 21 21 21 22 23 24 25 26
31 31 30 30 31 31 33 33 33 33 35 35 34 34 34 35 36 35 35 35 34 34 34 33 32 32 31 30 29 27 27 26 25 24 24 24 24 24 24 25 25 26 28 29
28 28 27 28 28 30 33 33 33 34 33 32 32 33 33 33 34 34 34 34 34 34 34 34 34 34 33 32 31 30 30 29 27 27 26 27 27 27 27 28 28 30 31 32
28 27 26 28 29 31 33 32 31 31 32 32 33 33 33 33 33 33 33 33 34 34 35 34 34 35 34 34 34 33 31 30 30 30 31 30 29 30 30 30 31 32 33 33
27 29 28 29 30 32 32 31 31 31 31 31 32 32 32 32 32 32 32 32 32 33 33 33 34 34 34 34 34 33 32 32 32 32 33 32 32 32 31 32 32 32 33 33
27 27 27 29 30 31 31 30 31 30 30 30 30 30 30 30 30 30 30 30 30 31 32 32 32 33 33 33 33 33 33 33 34 33 34 33 33 32 31 31 32 32 33 33
26 28 28 28 28 28 28 28 29 29 29 28 28 27 27 27 27 27 27 27 28 29 30 31 32 33 33 33 33 34 33 32 32 33 32 31 29 28 29 30 31 32 33 34
Wind_Direction
288 291 295 297 295 283 274 271 271 274 276 287 294 299 306 307 317 328 333 334 335 334 331 326 320 314 306 290 270 255 246 239 233 228 224 217 217 220 223 227 231 232 234 233
284 287 287 285 275 269 266 263 260 260 266 278 289 296 295 300 313 328 333 334 335 336 335 330 328 321 309 291 273 258 251 242 231 228 223 215 215 217 221 224 228 230 230 230
281 282 281 283 279 269 264 263 257 263 272 280 289 295 293 304 312 327 332 333 335 339 340 337 333 326 314 294 270 261 249 236 228 227 222 216 216 218 221 224 226 224 225 227
275 273 264 268 274 269 264 261 260 265 274 272 272 287 295 302 309 324 330 331 334 339 342 340 338 332 317 293 272 257 244 229 225 227 221 218 216 217 218 221 222 222 224 225
269 266 263 262 268 268 258 251 255 261 267 264 267 279 289 303 314 321 327 328 333 338 342 345 343 339 331 306 278 257 235 229 227 225 219 216 218 217 218 221 222 223 223 223
264 260 264 268 265 263 259 253 255 257 264 270 275 272 275 290 304 315 319 323 331 335 338 343 346 344 340 326 285 244 230 229 226 221 214 214 214 216 217 220 224 224 223 223
262 260 260 263 264 257 256 258 254 260 269 272 272 268 260 276 297 307 314 319 326 332 336 340 344 345 342 332 301 242 222 220 219 218 213 212 213 213 215 220 222 224 225 225
258 268 268 261 259 251 244 250 252 254 268 281 291 285 276 278 294 305 311 316 321 328 336 341 344 346 343 334 308 241 221 219 215 215 214 215 216 216 217 221 224 225 225 228
238 263 273 265 261 257 241 241 249 260 267 280 288 293 298 280 288 299 307 313 318 322 329 337 343 341 340 328 313 269 229 220 219 219 219 216 219 219 220 224 225 225 226 230
229 226 238 257 260 256 244 235 239 245 258 266 274 277 266 264 276 285 298 308 313 317 322 329 335 338 338 331 313 286 236 221 221 218 215 215 217 220 223 225 227 227 230 232
235 230 227 241 256 254 249 237 233 237 244 256 266 272 278 284 279 287 301 304 306 311 317 321 329 332 335 334 315 294 266 245 233 223 223 220 221 224 226 229 232 233 235 238
240 237 232 232 242 249 245 243 243 243 242 242 253 269 279 292 287 279 288 295 298 300 308 313 318 323 327 323 313 288 271 249 235 228 228 229 227 228 231 234 237 240 244 245
230 231 233 233 237 244 244 241 243 246 247 246 252 266 272 277 275 273 275 282 287 290 295 301 308 311 317 318 309 291 277 262 244 234 234 237 235 234 238 241 243 245 248 249
236 233 230 228 233 240 239 237 236 238 244 249 252 258 264 272 273 270 270 271 273 278 283 287 294 301 302 305 305 293 281 273 265 254 246 243 242 244 247 248 248 249 252 255
238 236 234 230 230 244 252 251 243 236 237 242 249 256 262 267 270 271 271 273 272 275 275 277 284 289 291 293 294 291 282 275 270 265 258 256 255 256 256 257 258 260 261 261
239 235 235 235 232 239 249 252 251 247 247 248 249 254 259 262 266 268 269 269 271 274 272 272 278 279 280 281 281 282 280 277 274 272 270 268 264 263 263 265 265 265 268 270
239 239 238 237 234 237 241 245 248 249 250 253 255 254 252 255 259 262 264 267 271 273 270 272 272 272 273 273 274 274 273 274 275 275 274 273 269 268 268 271 273 273 276 281
237 240 242 241 238 240 242 244 246 251 253 254 255 256 256 257 259 261 262 264 266 268 269 269 269 267 268 269 269 270 270 272 273 274 275 276 273 272 272 272 274 275 278 279
240 242 245 245 246 249 249 247 247 251 254 255 256 257 258 260 261 262 262 262 263 265 265 265 265 264 264 265 267 267 268 271 273 275 276 278 276 275 275 277 276 274 277 279
242 245 245 247 248 248 248 249 251 254 256 257 257 259 260 260 260 261 262 261 260 261 260 259 259 259 261 262 264 264 267 270 272 273 276 277 276 276 276 278 277 274 276 278
242 244 246 247 248 248 249 249 252 255 258 260 262 261 261 260 260 261 261 260 259 258 257 256 256 256 258 260 263 264 266 269 272 273 275 275 274 274 275 276 278 278 279 281
239 239 245 247 247 247 250 252 252 256 260 263 264 265 263 262 260 259 259 258 257 256 255 255 254 256 258 259 260 261 264 267 269 271 273 275 274 273 275 276 278 280 281 281
237 238 240 245 247 251 255 256 257 259 262 264 266 266 265 263 261 260 257 255 254 255 254 254 253 254 256 257 257 259 262 265 268 270 271 274 275 274 275 277 278 280 282 283
239 242 244 249 252 254 257 260 261 263 264 265 266 266 266 265 262 259 257 254 253 253 252 253 253 253 253 254 256 258 260 264 267 268 269 270 273 273 274 274 276 279 281 284
240 243 248 251 252 254 257 260 263 264 265 266 266 265 265 265 263 261 257 254 251 250 251 251 250 251 252 253 255 257 260 263 266 269 269 268 269 270 272 275 279 282 285 287
246 246 248 252 255 257 260 262 264 266 267 267 266 265 265 264 263 260 256 253 250 249 250 249 249 251 251 252 254 256 259 261 263 267 269 269 269 271 276 281 284 286 289 291
Height
5878 5879 5879 5879 5879 5880 5881 5881 5882 5881 5881 5880 5879 5876 5874 5870 5866 5863 5860 5856 5853 5849 5846 5843 5840 5837 5835 5835 5835 5835 5836 5838 5841 5845 5848 5853 5857 5860 5864 5867 5869 5871 5873 5874
5875 5876 5875 5875 5876 5877 5878 5878 5879 5879 5878 5877 5875 5874 5871 5867 5863 5862 5859 5855 5852 5848 5845 5842 5839 5836 5834 5834 5833 5833 5833 5835 5839 5843 5846 5850 5854 5857 5861 5864 5867 5869 5871 5873
5870 5872 5872 5872 5873 5873 5874 5874 5875 5875 5874 5873 5873 5871 5866 5863 5861 5859 5857 5854 5851 5847 5844 5841 5838 5835 5834 5832 5832 5832 5832 5834 5837 5840 5844 5847 5851 5855 5859 5862 5864 5867 5869 5871
5866 5868 5868 5869 5869 5869 5870 5871 5871 5871 5871 5871 5870 5867 5864 5861 5857 5854 5854 5853 5850 5847 5843 5840 5837 5834 5832 5831 5831 5831 5831 5833 5835 5838 5842 5845 5849 5853 5856 5859 5862 5864 5866 5868
5862 5863 5864 5865 5866 5865 5866 5867 5867 5868 5867 5866 5866 5865 5863 5859 5856 5853 5853 5851 5849 5846 5843 5839 5836 5833 5831 5830 5829 5829 5830 5832 5834 5837 5839 5843 5847 5850 5854 5857 5859 5862 5864 5866
5858 5859 5860 5860 5861 5861 5862 5863 5863 5863 5864 5864 5863 5862 5860 5857 5857 5854 5853 5851 5848 5845 5842 5839 5836 5833 5831 5829 5829 5829 5830 5831 5833 5835 5837 5841 5845 5848 5851 5854 5857 5859 5862 5864
5853 5855 5856 5856 5857 5858 5859 5860 5860 5861 5861 5860 5858 5856 5856 5855 5855 5854 5852 5850 5847 5845 5842 5839 5836 5833 5831 5829 5828 5828 5829 5831 5832 5834 5836 5839 5843 5846 5849 5852 5855 5857 5860 5862
5850 5852 5852 5852 5853 5854 5855 5857 5858 5859 5858 5856 5854 5852 5852 5853 5853 5852 5850 5848 5846 5844 5841 5839 5836 5833 5831 5829 5829 5828 5829 5830 5831 5833 5835 5838 5841 5844 5847 5850 5852 5855 5857 5859
5847 5850 5850 5849 5849 5850 5851 5853 5856 5856 5855 5854 5852 5851 5850 5850 5849 5849 5848 5846 5845 5843 5841 5838 5836 5833 5831 5830 5829 5828 5829 5830 5831 5833 5834 5837 5839 5842 5844 5847 5849 5852 5854 5857
5841 5843 5846 5846 5846 5846 5848 5849 5852 5852 5852 5851 5852 5850 5847 5845 5845 5845 5845 5844 5843 5842 5840 5838 5836 5834 5832 5830 5829 5829 5829 5830 5831 5832 5833 5835 5837 5839 5842 5844 5846 5849 5851 5853
5836 5838 5841 5843 5843 5844 5845 5846 5846 5848 5849 5849 5849 5850 5845 5842 5840 5840 5841 5841 5841 5839 5838 5836 5835 5833 5832 5830 5829 5829 5829 5829 5830 5831 5833 5834 5836 5838 5839 5841 5844 5846 5848 5850
5831 5833 5834 5837 5839 5840 5841 5842 5843 5844 5844 5845 5845 5847 5842 5839 5836 5836 5837 5838 5838 5838 5836 5835 5834 5833 5831 5830 5829 5829 5828 5828 5828 5830 5831 5833 5834 5836 5838 5839 5841 5843 5844 5846
5823 5825 5828 5831 5836 5836 5836 5836 5837 5839 5839 5840 5842 5844 5840 5838 5835 5833 5833 5835 5835 5835 5834 5834 5833 5832 5831 5830 5829 5828 5828 5827 5827 5828 5830 5831 5832 5834 5835 5837 5838 5839 5840 5842
5815 5817 5822 5826 5829 5828 5827 5829 5830 5832 5834 5836 5837 5837 5836 5833 5831 5829 5830 5829 5830 5831 5831 5831 5831 5830 5829 5829 5828 5828 5827 5827 5827 5828 5828 5829 5830 5831 5833 5834 5834 5835 5836 5837
5807 5810 5813 5817 5820 5821 5821 5822 5823 5825 5827 5829 5831 5830 5829 5827 5825 5824 5823 5823 5826 5827 5827 5827 5827 5827 5827 5827 5827 5827 5826 5826 5826 5826 5826 5827 5828 5829 5830 5831 5831 5832 5832 5833
5798 5802 5805 5808 5812 5814 5815 5816 5817 5819 5821 5823 5824 5825 5824 5821 5819 5819 5819 5819 5820 5822 5822 5823 5824 5824 5824 5825 5825 5825 5825 5825 5825 5825 5825 5826 5826 5826 5827 5827 5827 5828 5828 5828
5790 5794 5797 5801 5805 5806 5808 5811 5811 5812 5814 5816 5816 5817 5815 5814 5813 5812 5813 5814 5813 5815 5816 5818 5819 5819 5820 5821 5821 5822 5822 5822 5822 5822 5823 5823 5823 5823 5823 5823 5823 5823 5823 5823
5783 5785 5789 5793 5797 5797 5803 5803 5804 5804 5805 5806 5806 5806 5806 5806 5806 5806 5806 5807 5807 5809 5811 5812 5813 5815 5816 5817 5817 5818 5818 5819 5819 5819 5818 5819 5818 5818 5818 5818 5819 5819 5819 5819
5776 5779 5783 5786 5788 5790 5794 5794 5793 5795 5796 5796 5795 5796 5797 5797 5799 5798 5798 5799 5801 5802 5804 5805 5807 5809 5810 5811 5812 5813 5813 5814 5814 5814 5814 5813 5813 5813 5813 5813 5813 5813 5814 5814
5769 5771 5775 5778 5780 5782 5785 5783 5784 5787 5786 5785 5787 5788 5788 5789 5790 5790 5791 5792 5793 5795 5796 5798 5800 5802 5804 5805 5806 5807 5808 5808 5808 5809 5808 5808 5808 5808 5808 5808 5808 5808 5808 5807
5761 5763 5767 5769 5770 5773 5773 5773 5776 5779 5776 5776 5778 5778 5779 5780 5781 5782 5782 5783 5784 5786 5788 5791 5793 5794 5796 5798 5800 5801 5801 5802 5803 5803 5802 5802 5802 5802 5802 5802 5801 5801 5801 5800
5754 5756 5759 5761 5763 5766 5763 5765 5767 5767 5767 5768 5768 5769 5769 5770 5771 5772 5773 5774 5776 5777 5780 5782 5785 5787 5789 5791 5793 5794 5795 5796 5797 5797 5797 5796 5796 5796 5795 5795 5795 5794 5793 5792
5747 5750 5751 5753 5756 5755 5755 5757 5758 5759 5759 5759 5760 5760 5760 5760 5761 5762 5764 5766 5767 5769 5771 5774 5776 5779 5781 5783 5785 5786 5787 5788 5789 5790 5789 5789 5789 5789 5788 5788 5788 5786 5785 5784
5741 5742 5744 5746 5747 5747 5748 5749 5750 5751 5751 5751 5751 5751 5750 5751 5752 5753 5754 5756 5759 5760 5762 5764 5768 5770 5773 5775 5777 5779 5780 5781 5781 5782 5782 5782 5782 5781 5781 5780 5779 5778 5777 5775
5733 5735 5737 5738 5739 5740 5740 5741 5742 5742 5742 5742 5742 5742 5742 5742 5743 5744 5746 5748 5750 5753 5754 5757 5759 5762 5765 5767 5769 5771 5772 5773 5774 5774 5774 5774 5773 5773 5772 5772 5771 5770 5768 5766
5727 5728 5730 5731 5732 5733 5733 5734 5734 5734 5734 5734 5734 5734 5734 5735 5735 5736 5738 5740 5742 5745 5747 5750 5752 5754 5757 5759 5761 5763 5764 5765 5766 5767 5767 5766 5766 5765 5765 5764 5763 5761 5760 5758